GW2194 Weather Reports


Display with metric or nautical units.
time (UTC)temp
F
wind
direction
speed
MPH
gust
MPH
rain 1hr
in
rain 24hr
in
rain mn
in
humidity
%
barometer
mb
20260504021457 43 89 0.0 3.0 0.00 0.00 0.00 64 1017.9
20260504020954 43 38 0.0 0.0 0.00 0.00 0.00 64 1017.9
20260504020450 43 106 1.0 2.0 0.00 0.00 0.00 62 1017.7
20260504015947 44 113 0.0 0.0 0.00 0.00 0.00 63 1018.0
20260504015443 44 106 1.0 2.0 0.00 0.00 0.00 62 1017.9
20260504014939 44 136 1.0 2.0 0.00 0.00 0.00 64 1018.0
20260504014435 44 171 0.0 2.0 0.00 0.00 0.00 64 1017.7
20260504013932 44 321 0.0 0.0 0.00 0.00 0.00 62 1017.6
20260504013431 44 48 0.0 2.0 0.00 0.00 0.00 62 1017.8
20260504012927 45 202 0.0 1.0 0.00 0.00 0.00 64 1017.6
20260504012425 45 113 0.0 1.0 0.00 0.00 0.00 61 1017.4
20260504011922 45 86 1.0 2.0 0.00 0.00 0.00 61 1017.4
20260504011419 45 99 0.0 2.0 0.00 0.00 0.00 61 1017.6
20260504010915 45 176 0.0 0.0 0.00 0.00 0.00 59 1017.5
20260504010411 46 47 1.0 2.0 0.00 0.00 0.00 56 1017.3
20260504005907 46 202 0.0 2.0 0.00 0.00 0.00 56 1017.5
20260504005404 47 66 0.0 2.0 0.00 0.00 0.00 58 1017.2
20260504004903 47 134 1.0 2.0 0.00 0.00 0.00 54 1017.3
20260504004400 48 92 1.0 3.0 0.00 0.00 0.00 53 1017.1
20260504003856 48 325 0.0 1.0 0.00 0.00 0.00 53 1017.3
20260504003353 49 219 2.0 2.0 0.00 0.00 0.00 52 1017.3
20260504002849 50 143 1.0 2.0 0.00 0.00 0.00 45 1017.2
20260504002346 51 44 0.0 1.0 0.00 0.00 0.00 46 1017.1
20260504001844 51 13 0.0 2.0 0.00 0.00 0.00 41 1017.3
20260504001341 51 82 3.0 4.0 0.00 0.00 0.00 39 1017.1
20260504000837 52 17 0.0 1.0 0.00 0.00 0.00 38 1017.2
20260504000335 52 42 3.0 3.0 0.00 0.00 0.00 37 1017.3
20260503235832 52 81 0.0 3.0 0.00 0.00 0.00 36 1017.2
20260503235330 52 128 0.0 4.0 0.00 0.00 0.00 36 1016.9
20260503234827 53 298 4.0 4.0 0.00 0.00 0.00 36 1017.1
20260503234325 53 0 0.0 1.0 0.00 0.00 0.00 33 1017.2
20260503233822 54 53 0.0 4.0 0.00 0.00 0.00 33 1017.2
20260503233318 54 356 1.0 2.0 0.00 0.00 0.00 31 1017.2
20260503232814 55 82 2.0 6.0 0.00 0.00 0.00 32 1017.3
20260503232312 55 95 2.0 3.0 0.00 0.00 0.00 31 1017.1
20260503231810 55 17 1.0 1.0 0.00 0.00 0.00 32 1017.2
20260503231307 55 224 3.0 3.0 0.00 0.00 0.00 30 1017.3
20260503230802 56 87 0.0 3.0 0.00 0.00 0.00 31 1017.4
20260503230300 57 118 2.0 4.0 0.00 0.00 0.00 29 1017.5
20260503225757 57 52 3.0 6.0 0.00 0.00 0.00 29 1017.3
20260503225252 57 214 6.0 9.0 0.00 0.00 0.00 29 1017.5
20260503224749 58 194 1.0 6.0 0.00 0.00 0.00 29 1017.2
20260503224247 58 287 3.0 4.0 0.00 0.00 0.00 30 1017.3
20260503223744 57 339 6.0 7.0 0.00 0.00 0.00 29 1017.4
20260503223242 57 19 2.0 6.0 0.00 0.00 0.00 29 1017.3
20260503222738 57 211 4.0 13.0 0.00 0.00 0.00 29 1017.3
20260503222236 58 215 1.0 4.0 0.00 0.00 0.00 30 1017.2
20260503221734 59 237 3.0 5.0 0.00 0.00 0.00 28 1017.3
20260503221232 57 240 6.0 10.0 0.00 0.00 0.00 29 1017.3
20260503220728 57 240 2.0 5.0 0.00 0.00 0.00 29 1017.4
20260503220225 57 242 2.0 7.0 0.00 0.00 0.00 29 1017.2
20260503215722 57 201 6.0 7.0 0.00 0.00 0.00 31 1017.1
20260503215219 57 188 3.0 5.0 0.00 0.00 0.00 29 1017.1
20260503214717 57 303 5.0 6.0 0.00 0.00 0.00 31 1017.3
20260503214213 57 255 6.0 12.0 0.00 0.00 0.00 28 1017.3
20260503213711 57 51 4.0 6.0 0.00 0.00 0.00 29 1017.2
20260503213208 57 7 4.0 11.0 0.00 0.00 0.00 27 1017.1
20260503212705 57 38 3.0 6.0 0.00 0.00 0.00 28 1017.5
20260503212203 57 224 3.0 9.0 0.00 0.00 0.00 27 1017.3
20260503211700 57 250 6.0 10.0 0.00 0.00 0.00 29 1017.4
20260503211156 57 246 3.0 8.0 0.00 0.00 0.00 29 1017.6
20260503210652 57 41 11.0 11.0 0.00 0.00 0.00 26 1017.4
20260503210149 56 302 3.0 4.0 0.00 0.00 0.00 29 1017.8
20260503205644 57 268 2.0 11.0 0.00 0.00 0.00 27 1017.7
20260503205141 56 315 3.0 10.0 0.00 0.00 0.00 31 1017.6
20260503204637 56 68 3.0 10.0 0.00 0.00 0.00 30 1017.5
20260503204135 55 329 3.0 7.0 0.00 0.00 0.00 29 1017.6
20260503203632 55 1 7.0 15.0 0.00 0.00 0.00 34 1017.8
20260503203130 56 350 9.0 13.0 0.00 0.00 0.00 32 1017.8
20260503202627 56 213 3.0 12.0 0.00 0.00 0.00 30 1018.2
20260503202125 56 33 8.0 13.0 0.00 0.00 0.00 32 1017.9
20260503201623 56 227 2.0 5.0 0.00 0.00 0.00 30 1018.3
20260503201120 57 233 4.0 9.0 0.00 0.00 0.00 31 1018.2
20260503200616 55 230 5.0 5.0 0.00 0.00 0.00 32 1018.4
20260503200113 55 301 2.0 9.0 0.00 0.00 0.00 32 1018.4
20260503195610 56 351 5.0 12.0 0.00 0.00 0.00 30 1018.5
20260503195106 55 51 3.0 7.0 0.00 0.00 0.00 33 1018.5
20260503194603 54 3 5.0 13.0 0.00 0.00 0.00 33 1018.7
20260503194058 55 286 3.0 11.0 0.00 0.00 0.00 31 1019.0
20260503193555 57 141 1.0 13.0 0.00 0.00 0.00 29 1018.8
20260503193050 56 275 3.0 6.0 0.00 0.00 0.00 31 1018.8
20260503192547 55 28 3.0 12.0 0.00 0.00 0.00 31 1018.8
20260503192043 56 239 5.0 14.0 0.00 0.00 0.00 31 1019.0
20260503191540 54 103 5.0 6.0 0.00 0.00 0.00 39 1018.7
20260503191037 55 3 6.0 9.0 0.00 0.00 0.00 31 1019.0
20260503190533 54 119 3.0 5.0 0.00 0.00 0.00 30 1018.8
20260503190030 55 30 6.0 16.0 0.00 0.00 0.00 31 1019.1
20260503185526 53 12 3.0 5.0 0.00 0.00 0.00 39 1018.8
20260503185021 55 340 6.0 7.0 0.00 0.00 0.00 32 1019.2
20260503184517 54 3 1.0 11.0 0.00 0.00 0.00 37 1019.1
20260503184014 54 25 3.0 12.0 0.00 0.00 0.00 36 1019.2
20260503183510 54 261 5.0 7.0 0.00 0.00 0.00 34 1019.2
20260503183008 54 232 8.0 13.0 0.00 0.00 0.00 42 1019.5
20260503182507 54 202 3.0 7.0 0.00 0.00 0.00 33 1019.3
20260503182005 53 3 5.0 11.0 0.00 0.00 0.00 33 1019.5
20260503181501 54 346 8.0 9.0 0.00 0.00 0.00 42 1019.4
20260503180956 54 246 9.0 11.0 0.00 0.00 0.00 36 1019.3
20260503180455 54 338 6.0 10.0 0.00 0.00 0.00 44 1019.5
20260503175951 53 8 4.0 6.0 0.00 0.00 0.00 39 1019.6
20260503175449 53 32 7.0 9.0 0.00 0.00 0.00 37 1019.6
20260503174945 54 185 4.0 4.0 0.00 0.00 0.00 38 1019.6
20260503174443 53 230 9.0 12.0 0.00 0.00 0.00 36 1019.6
20260503173938 52 292 7.0 7.0 0.00 0.00 0.00 40 1019.6
20260503173434 51 43 5.0 9.0 0.00 0.00 0.00 37 1019.6
20260503172931 51 63 4.0 9.0 0.00 0.00 0.00 42 1019.6
20260503172429 50 351 7.0 10.0 0.00 0.00 0.00 45 1019.8
20260503171925 52 267 2.0 4.0 0.00 0.00 0.00 37 1019.9
20260503171422 51 71 5.0 11.0 0.00 0.00 0.00 34 1019.9
20260503170919 50 1 5.0 11.0 0.00 0.00 0.00 41 1020.0
20260503170415 49 350 4.0 9.0 0.00 0.00 0.00 38 1020.3
20260503150808 45 0 7.0 8.0 0.00 0.00 0.00 43 1021.1
20260503150303 45 220 3.0 5.0 0.00 0.00 0.00 45 1021.1
20260503140228 44 347 3.0 5.0 0.00 0.00 0.00 52 1021.1
20260503131157 42 0 5.0 5.0 0.00 0.00 0.00 60 1021.2
20260503130655 41 42 3.0 5.0 0.00 0.00 0.00 62 1020.9
20260503130152 40 303 4.0 5.0 0.00 0.00 0.00 63 1020.9
20260503120118 34 110 1.0 1.0 0.00 0.00 0.00 92 1021.0
20260503110545 31 64 1.0 2.0 0.00 0.00 0.00 93 1020.3
20260503090432 33 329 0.0 1.0 0.00 0.00 0.00 85 1019.3
20260503081358 37 251 0.0 2.0 0.00 0.00 0.00 78 1018.5
20260503080855 37 23 0.0 2.0 0.00 0.00 0.00 77 1018.4
20260503080352 37 290 1.0 2.0 0.00 0.00 0.00 76 1018.6
20260503072829 39 8 2.0 4.0 0.00 0.00 0.00 73 1018.2
20260503072326 39 66 0.0 2.0 0.00 0.00 0.00 74 1018.2
20260503071822 39 1 3.0 3.0 0.00 0.00 0.00 73 1018.0
20260503071320 39 12 1.0 3.0 0.00 0.00 0.00 73 1018.2
20260503070815 39 344 2.0 4.0 0.00 0.00 0.00 72 1017.9
20260503070308 39 51 3.0 5.0 0.00 0.00 0.00 72 1018.0
20260503060232 39 31 0.0 2.0 0.00 0.00 0.00 72 1018.0
20260503054719 39 16 3.0 5.0 0.00 0.00 0.00 71 1017.9
20260503054216 39 18 1.0 3.0 0.00 0.00 0.00 72 1018.0
20260503053715 39 11 2.0 3.0 0.00 0.00 0.00 72 1017.9
20260503053213 39 7 3.0 4.0 0.00 0.00 0.00 72 1018.0
20260503052709 39 358 2.0 3.0 0.00 0.00 0.00 72 1017.8
20260503052206 39 24 2.0 4.0 0.00 0.00 0.00 71 1017.6
20260503051701 39 26 2.0 3.0 0.00 0.00 0.00 71 1017.9
20260503051159 39 8 2.0 2.0 0.00 0.00 0.00 71 1017.7
20260503050655 39 36 3.0 3.0 0.00 0.00 0.00 70 1018.2
20260503050151 39 25 4.0 4.0 0.00 0.00 0.00 71 1017.9
20260503045649 39 3 2.0 3.0 0.00 0.00 0.00 71 1018.2
20260503045146 39 53 2.0 4.0 0.00 0.00 0.00 71 1018.0
20260503044643 39 16 2.0 3.0 0.00 0.00 0.00 71 1017.8
20260503044141 39 24 2.0 2.0 0.00 0.00 0.00 72 1017.9
20260503043637 39 277 1.0 3.0 0.00 0.00 0.00 71 1018.2
20260503043134 40 336 0.0 2.0 0.00 0.00 0.00 71 1018.3
20260503042630 40 354 4.0 8.0 0.00 0.00 0.00 70 1018.0
20260503042126 40 9 4.0 5.0 0.00 0.00 0.00 71 1018.2
20260503041623 40 39 2.0 4.0 0.00 0.00 0.00 71 1018.4
20260503041121 40 46 3.0 4.0 0.00 0.00 0.00 70 1018.2
20260503040618 40 28 3.0 3.0 0.00 0.00 0.00 70 1017.9
20260503040116 40 33 5.0 5.0 0.00 0.00 0.00 69 1018.3
20260503035612 40 11 3.0 4.0 0.00 0.00 0.00 68 1018.0
20260503035110 40 25 4.0 4.0 0.00 0.00 0.00 68 1018.0
20260503034607 40 348 3.0 6.0 0.00 0.00 0.00 68 1018.2
20260503034104 40 22 6.0 7.0 0.00 0.00 0.00 67 1018.0
20260503033601 41 2 3.0 5.0 0.00 0.00 0.00 67 1018.2
20260503033059 41 343 4.0 5.0 0.00 0.00 0.00 66 1018.0
20260503032557 41 2 2.0 11.0 0.00 0.00 0.00 67 1018.2
20260503032055 41 23 4.0 6.0 0.00 0.00 0.00 67 1018.2
20260503031552 41 14 3.0 5.0 0.00 0.00 0.00 67 1018.0
20260503031050 41 8 5.0 5.0 0.00 0.00 0.00 68 1018.0
20260503030545 41 358 3.0 4.0 0.00 0.00 0.00 67 1017.9
20260503030043 41 17 6.0 6.0 0.00 0.00 0.00 66 1018.3
20260503025539 41 336 4.0 7.0 0.00 0.00 0.00 67 1018.4
20260503025037 41 13 9.0 9.0 0.00 0.00 0.00 66 1018.3
20260503024533 41 259 0.0 6.0 0.00 0.00 0.00 68 1018.0
20260503024031 41 0 4.0 5.0 0.00 0.00 0.00 68 1018.0
20260503023527 41 18 3.0 5.0 0.00 0.00 0.00 67 1017.8
20260503023025 42 15 2.0 7.0 0.00 0.00 0.00 66 1017.9
20260503022520 42 25 5.0 8.0 0.00 0.00 0.00 66 1018.3
20260503022015 42 15 3.0 6.0 0.00 0.00 0.00 66 1018.0